This is the latest recevied weather packets stored in our database for station/object KF6RAL-6. If no packets are shown the sender has not sent any weather packets the latest 10 day(s).
| Time | Temp. | Humidity | Pressure | Rain* | Wind** | Luminosity | Snow |
|---|---|---|---|---|---|---|---|
| 1777260796 | 7.22° C | 83% | 1006.7 hPa | 0 mm | - | - | - |
| 1777260374 | 7.22° C | 83% | 1006.7 hPa | 0 mm | - | - | - |
| 1777259953 | 7.22° C | 83% | 1006.6 hPa | 0 mm | - | - | - |
| 1777259532 | 7.22° C | 83% | 1006.6 hPa | 0 mm | - | - | - |
| 1777259111 | 7.78° C | 82% | 1006.6 hPa | 0 mm | - | - | - |
| 1777258690 | 7.78° C | 82% | 1006.5 hPa | 0 mm | - | - | - |
| 1777258269 | 7.78° C | 80% | 1006.6 hPa | 0 mm | - | - | - |
| 1777257848 | 7.78° C | 79% | 1006.4 hPa | 0 mm | - | - | - |
| 1777257427 | 8.33° C | 77% | 1005.9 hPa | 0 mm | - | - | - |
| 1777257006 | 8.33° C | 75% | 1005.9 hPa | 0 mm | - | - | - |
| 1777256586 | 8.89° C | 74% | 1005.8 hPa | 0 mm | - | - | - |
| 1777256164 | 8.89° C | 73% | 1005.6 hPa | 0 mm | - | - | - |
| 1777255743 | 8.89° C | 73% | 1005.5 hPa | 0 mm | - | - | - |
| 1777255322 | 8.89° C | 72% | 1005.5 hPa | 0 mm | - | - | - |
| 1777254901 | 8.89° C | 72% | 1005.4 hPa | 0 mm | - | - | - |
| 1777254480 | 8.89° C | 72% | 1005.3 hPa | 0 mm | - | - | - |
| 1777254059 | 9.44° C | 72% | 1005.9 hPa | 0 mm | - | - | - |
| 1777253638 | 9.44° C | 71% | 1005.9 hPa | 0 mm | - | - | - |
| 1777253217 | 10° C | 72% | 1005.6 hPa | 0 mm | - | - | - |
| 1777252796 | 10° C | 74% | 1005.5 hPa | 0 mm | - | - | - |
| 1777252375 | 9.44° C | 76% | 1005.4 hPa | 0 mm | - | - | - |
| 1777251954 | 9.44° C | 76% | 1005.4 hPa | 0 mm | - | - | - |
| 1777251533 | 8.89° C | 75% | 1004.9 hPa | 0 mm | - | - | - |
| 1777251111 | 8.89° C | 76% | 1004.9 hPa | 0 mm | - | - | - |
| 1777250691 | 8.33° C | 76% | 1004.7 hPa | 0 mm | - | - | - |
* Rain latest hour (hover to see other rain measurements)
** Current wind speed in m/s (hover to see current wind gust speed)